[[{"header":{"parameterUnit":"m.s-1","parameterCategory":1,"la1":30.2991,"la2":30.254,"lo1":-89.0895,"lo2":-89.0444,"dy":0.0017,"dx":0.0017,"nx":28,"ny":28,"refTime":"2026-02-11T03:00:00:Z","depth":0,"parameterNumber":2,"parameterNumberName":"U-component_of_WINDS"},"data":[0,0,0,0,0,0,0,0,0,0,0,0,0,0,0,0,0,0,0,0,0,0,0,0,0,0,0,0,0,0,0,0,0,0,0,0,0,0,0,0,0,0,0,0,0,0,0,0,0,0,0,0,0,0,0,0,0,0,-2.1506,-2.1506,0,-2.1496,-2.1496,-2.1496,-2.1447,-2.1446,-2.1445,-2.1444,-2.1436,-2.1437,-2.1438,0,0,0,0,0,0,0,0,0,0,0,0,0,-2.1487,-2.1487,-2.1506,-2.1506,-2.1506,-2.1496,-2.1496,-2.1496,-2.1447,-2.1446,-2.1445,-2.1443,-2.1436,-2.1437,-2.1438,0,0,0,0,0,0,0,0,0,0,0,0,0,-2.1488,-2.1488,-2.1506,-2.148,-2.1478,-2.1496,-2.1496,-2.1496,-2.1448,-2.1446,-2.1444,-2.1443,-2.1435,-2.1437,-2.1438,-2.148,0,0,-2.1442,-2.1442,0,0,0,0,0,0,0,0,-2.1488,-2.1489,-2.1484,-2.1482,-2.1479,-2.1471,-2.1486,-2.1491,-2.1448,-2.1459,-2.1444,-2.1442,-2.1449,-2.1449,-2.1451,-2.148,-2.148,-2.1442,-2.1443,-2.1443,-2.1444,0,0,0,0,0,0,0,-2.1488,-2.1489,-2.1502,-2.1484,-2.1481,-2.1471,-2.1469,-2.1487,-2.1464,-2.1458,-2.1455,-2.1454,-2.1448,-2.145,-2.1451,-2.148,-2.1442,-2.1443,-2.1444,-2.1444,-2.1547,-2.1549,0,0,0,0,0,0,-2.1491,-2.1489,-2.1502,-2.1502,-2.1479,-2.1472,-2.147,-2.1475,-2.1464,-2.146,-2.1455,-2.1452,-2.1449,-2.1449,-2.145,-2.1503,-2.1443,-2.1444,-2.1445,-2.1545,-2.1548,-2.155,0,0,0,0,0,0,-2.1491,-2.1493,-2.1503,-2.1494,-2.1495,-2.1474,-2.1481,-2.1476,-2.1479,-2.1462,-2.1458,-2.1462,-2.1447,-2.1448,-2.1474,-2.1501,-2.1445,-2.1446,-2.1543,-2.1546,-2.1549,-2.1606,0,0,0,0,0,0,-2.149,-2.1493,-2.1508,-2.1495,-2.1495,-2.1526,-2.1482,-2.1477,-2.1481,-2.1476,-2.1467,-2.1464,-2.1446,-2.1472,-2.1475,-2.1502,-2.1447,-2.1541,-2.1544,-2.1548,-2.1601,-2.161,-2.1618,0,0,0,0,0,-2.149,-2.1524,-2.1509,-2.1511,-2.1514,-2.1527,-2.1528,-2.1506,-2.1483,-2.1499,-2.1489,-2.1464,-2.1497,-2.1475,-2.1478,-2.1506,-2.1539,-2.1543,-2.1548,-2.1598,-2.1608,-2.1618,0,0,0,0,0,0,-2.154,-2.1522,-2.1505,-2.1535,-2.1533,-2.1519,-2.1538,-2.1518,-2.1523,-2.1518,-2.1492,-2.149,-2.1521,-2.1515,-2.1491,-2.1549,-2.1514,-2.1519,-2.1551,-2.1561,-2.1569,-2.1571,-2.1448,0,0,0,0,0,-2.1555,-2.1567,-2.155,-2.1578,-2.1578,-2.1559,-2.1564,-2.1547,-2.1545,-2.1544,-2.1535,-2.1534,-2.1545,-2.1552,-2.1561,-2.16,-2.1599,-2.162,-2.1629,-2.1635,-2.1641,-2.1665,-2.1676,-2.1564,-2.1564,-2.1564,0,0,-2.1585,-2.1577,-2.1585,-2.1588,-2.1585,-2.16,-2.1558,-2.1574,-2.1586,-2.1546,-2.1571,-2.1565,-2.1562,-2.1596,-2.161,-2.1592,-2.1672,-2.1641,-2.1647,-2.1649,-2.1671,-2.1682,-2.1691,-2.1567,-2.1567,-2.1566,0,0,-2.1649,-2.1642,-2.1667,-2.1665,-2.166,-2.1647,-2.1653,-2.1642,-2.1637,-2.1661,-2.1633,-2.1646,-2.1664,-2.1665,-2.1667,-2.1734,-2.1713,-2.1737,-2.1781,-2.1805,-2.1814,-2.1822,-2.1849,-2.1859,-2.1742,-2.1742,-2.1742,0,-2.1688,-2.1707,-2.1682,-2.1701,-2.1705,-2.167,-2.1696,-2.1695,-2.1694,-2.1699,-2.1678,-2.1702,-2.1698,-2.1733,-2.175,-2.1751,-2.176,-2.1739,-2.1814,-2.1822,-2.1829,-2.1855,-2.1865,-2.1746,-2.1745,-2.1745,-2.1745,0,-2.1757,-2.1771,-2.1792,-2.1793,-2.1798,-2.1821,-2.1801,-2.181,-2.1794,-2.1784,-2.181,-2.1804,-2.1812,-2.1819,-2.1802,-2.1853,-2.1843,-2.1819,-2.1784,-2.1843,-2.1867,-2.1877,-2.175,-2.1749,-2.1748,-2.1747,0,0,-2.1852,-2.184,-2.1848,-2.1849,-2.1843,-2.1854,-2.1876,-2.1884,-2.1894,-2.1895,-2.1915,-2.1932,-2.1911,-2.1914,-2.1898,-2.1918,-2.1976,-2.1892,-2.1892,-2.1911,-2.2035,-2.2056,-2.2067,-2.1961,-2.1963,-2.1964,-2.2037,0,-2.1916,-2.1953,-2.1932,-2.1972,-2.1987,-2.1955,-2.1975,-2.1974,-2.1966,-2.1978,-2.1969,-2.1983,-2.1952,-2.1955,-2.1973,-2.1965,-2.2001,-2.1959,-2.1983,-2.1984,-2.1987,-2.2079,-2.21,-2.2169,-2.2046,-2.2047,-2.2048,0,-2.1995,-2.2,-2.2042,-2.2036,-2.2041,-2.2059,-2.2067,-2.2078,-2.2078,-2.207,-2.2075,-2.2055,-2.2079,-2.2043,-2.2077,-2.2049,-2.2057,-2.2055,-2.2057,-2.2061,-2.2022,-2.2089,-2.219,-2.2202,-2.2062,-2.2061,-2.206,0,-2.2065,-2.2082,-2.211,-2.2112,-2.2104,-2.2118,-2.2115,-2.2113,-2.212,-2.2127,-2.2132,-2.2141,-2.2147,-2.2156,-2.214,-2.2115,-2.2178,-2.214,-2.2175,-2.2176,-2.2192,-2.2192,-2.23,-2.2192,-2.2192,-2.2192,-2.2192,0,-2.2139,-2.2168,-2.2142,-2.216,-2.2191,-2.2167,-2.22,-2.2194,-2.2193,-2.2211,-2.2182,-2.22,-2.2176,-2.2192,-2.2179,-2.2212,-2.2214,-2.2211,-2.2208,-2.2215,-2.2216,-2.2222,-2.2218,-2.2195,-2.2194,-2.2194,-2.2193,0,-2.2224,-2.2207,-2.2236,-2.2227,-2.2225,-2.225,-2.2242,-2.226,-2.2249,-2.2273,-2.2277,-2.2262,-2.2279,-2.2263,-2.228,-2.2272,-2.2316,-2.2305,-2.2317,-2.2315,-2.2353,-2.2351,-2.2471,-2.2487,-2.2366,-2.2367,-2.2368,0,-2.2274,-2.2295,-2.2288,-2.2298,-2.2298,-2.2313,-2.2321,-2.2299,-2.2309,-2.2311,-2.2329,-2.2344,-2.2356,-2.2386,-2.2378,-2.2391,-2.2382,-2.2423,-2.2384,-2.2392,-2.2387,-2.2387,-2.2391,-2.2432,-2.2433,-2.2434,-2.2435,0,-2.2366,-2.2358,-2.2369,-2.2379,-2.2389,-2.2396,-2.24,-2.241,-2.2388,-2.2401,-2.2418,-2.2427,-2.2445,-2.2462,-2.2473,-2.2472,-2.2452,-2.2447,-2.2457,-2.2466,-2.2474,-2.2474,-2.2342,-2.2445,-2.2444,-2.2444,-2.2443,-2.2443,-2.2437,-2.2456,-2.2455,-2.247,-2.2471,-2.2477,-2.2494,-2.2486,-2.2501,-2.2514,-2.25,-2.2523,-2.2525,-2.2537,-2.254,-2.2559,-2.2542,-2.2555,-2.2559,-2.2563,-2.2571,-2.2469,-2.256,-2.256,-2.2559,-2.2559,-2.2559,0,-2.2532,-2.253,-2.2543,-2.2552,-2.2564,-2.2542,-2.2547,-2.2559,-2.2579,-2.2582,-2.2595,-2.2617,-2.2634,-2.2627,-2.2643,-2.266,-2.2651,-2.2665,-2.2665,-2.2666,-2.2583,-2.2575,-2.2672,-2.2672,-2.2672,-2.2672,-2.2672,-2.2672,-2.2582,-2.2614,-2.2606,-2.2639,-2.2637,-2.2659,-2.2664,-2.267,-2.2673,-2.2699,-2.2713,-2.2708,-2.2709,-2.2724,-2.274,-2.2738,-2.2746,-2.2765,-2.276,-2.2682,-2.2671,-2.2661,-2.2653,-2.2766,-2.2766,-2.2842,-2.2843,-2.2843]},{"header":{"parameterUnit":"m.s-1","parameterCategory":1,"la1":30.2991,"la2":30.254,"lo1":-89.0895,"lo2":-89.0444,"dy":0.0017,"dx":0.0017,"nx":28,"ny":28,"refTime":"2026-02-11T03:00:00:Z","depth":0,"parameterNumber":3,"parameterNumberName":"V-component_of_WINDS"},"data":[0,0,0,0,0,0,0,0,0,0,0,0,0,0,0,0,0,0,0,0,0,0,0,0,0,0,0,0,0,0,0,0,0,0,0,0,0,0,0,0,0,0,0,0,0,0,0,0,0,0,0,0,0,0,0,0,0,0,-2.1034,-2.1035,0,-2.107,-2.107,-2.1071,-2.1072,-2.1072,-2.1071,-2.1071,-2.1107,-2.1108,-2.1109,0,0,0,0,0,0,0,0,0,0,0,0,0,-2.0967,-2.0968,-2.1034,-2.1035,-2.1035,-2.107,-2.107,-2.1071,-2.1072,-2.1072,-2.1071,-2.1071,-2.1106,-2.1108,-2.111,0,0,0,0,0,0,0,0,0,0,0,0,0,-2.0998,-2.0968,-2.1034,-2.104,-2.1041,-2.107,-2.107,-2.1071,-2.1072,-2.1072,-2.1071,-2.1071,-2.1106,-2.1108,-2.111,-2.1135,0,0,-2.1116,-2.1117,0,0,0,0,0,0,0,0,-2.0997,-2.1001,-2.1039,-2.104,-2.1041,-2.1066,-2.106,-2.1092,-2.1073,-2.106,-2.1071,-2.107,-2.1094,-2.1097,-2.1105,-2.1137,-2.1138,-2.1116,-2.1117,-2.1118,-2.1119,0,0,0,0,0,0,0,-2.0994,-2.0999,-2.1048,-2.1039,-2.104,-2.1041,-2.1045,-2.1066,-2.108,-2.1061,-2.1062,-2.1066,-2.1094,-2.1103,-2.1106,-2.1139,-2.1116,-2.1118,-2.1119,-2.112,-2.1195,-2.1196,0,0,0,0,0,0,-2.0991,-2.0998,-2.1047,-2.1049,-2.1017,-2.1042,-2.1047,-2.1058,-2.108,-2.1083,-2.1066,-2.1066,-2.11,-2.1103,-2.1107,-2.1139,-2.1118,-2.112,-2.1121,-2.1194,-2.1195,-2.1196,0,0,0,0,0,0,-2.099,-2.0996,-2.1046,-2.1024,-2.103,-2.1044,-2.1057,-2.106,-2.1068,-2.1084,-2.1086,-2.1073,-2.1099,-2.1104,-2.1128,-2.114,-2.1121,-2.1123,-2.1193,-2.1194,-2.1195,-2.1203,0,0,0,0,0,0,-2.0988,-2.0995,-2.1005,-2.1024,-2.1031,-2.1067,-2.1058,-2.1061,-2.1072,-2.1071,-2.109,-2.1093,-2.1099,-2.1125,-2.113,-2.1143,-2.1124,-2.1192,-2.1194,-2.1195,-2.1202,-2.1204,-2.1206,0,0,0,0,0,-2.0985,-2.1005,-2.1005,-2.1011,-2.1044,-2.1067,-2.1072,-2.1079,-2.1073,-2.1083,-2.1093,-2.1092,-2.1138,-2.1128,-2.1134,-2.1147,-2.1191,-2.1193,-2.1195,-2.12,-2.1204,-2.1206,0,0,0,0,0,0,-2.0986,-2.1007,-2.1008,-2.1034,-2.1049,-2.1068,-2.108,-2.1081,-2.1098,-2.1097,-2.1105,-2.1109,-2.1134,-2.1142,-2.1131,-2.1173,-2.1164,-2.1167,-2.1166,-2.1169,-2.1172,-2.1169,-2.1126,0,0,0,0,0,-2.0989,-2.1007,-2.1025,-2.1046,-2.1054,-2.1066,-2.1076,-2.1081,-2.1096,-2.1102,-2.1114,-2.1129,-2.1147,-2.1158,-2.1176,-2.1203,-2.1207,-2.1215,-2.1217,-2.1219,-2.1221,-2.1238,-2.1241,-2.1202,-2.1202,-2.1202,0,0,-2.0996,-2.101,-2.102,-2.1047,-2.1059,-2.1077,-2.1071,-2.109,-2.1104,-2.1105,-2.1129,-2.1139,-2.1156,-2.1182,-2.1194,-2.119,-2.1233,-2.1221,-2.1222,-2.1224,-2.124,-2.1244,-2.1247,-2.1203,-2.1203,-2.1202,0,0,-2.1018,-2.103,-2.105,-2.1062,-2.1081,-2.1089,-2.1094,-2.1113,-2.1119,-2.1144,-2.1145,-2.1162,-2.1192,-2.1205,-2.1215,-2.1243,-2.1244,-2.1249,-2.1261,-2.1277,-2.128,-2.1283,-2.1294,-2.1298,-2.1251,-2.1251,-2.1251,0,-2.1024,-2.1052,-2.106,-2.108,-2.1092,-2.1094,-2.1115,-2.1126,-2.1149,-2.1157,-2.1153,-2.1192,-2.1203,-2.1233,-2.124,-2.1248,-2.1255,-2.1247,-2.1279,-2.1282,-2.1285,-2.1295,-2.13,-2.1252,-2.1252,-2.1252,-2.1252,0,-2.1059,-2.1078,-2.1092,-2.1116,-2.1129,-2.1149,-2.116,-2.1172,-2.1176,-2.1185,-2.121,-2.1224,-2.1245,-2.1253,-2.1256,-2.1283,-2.1281,-2.1277,-2.1269,-2.1289,-2.1299,-2.1303,-2.1252,-2.1252,-2.1252,-2.1252,0,0,-2.1082,-2.111,-2.1115,-2.1127,-2.1148,-2.1163,-2.1183,-2.1204,-2.1216,-2.1231,-2.1249,-2.1276,-2.1273,-2.1285,-2.129,-2.1304,-2.1327,-2.1299,-2.1299,-2.1304,-2.136,-2.1363,-2.1367,-2.1327,-2.1328,-2.1328,-2.1359,0,-2.1107,-2.1144,-2.1152,-2.1184,-2.1203,-2.1206,-2.1224,-2.1239,-2.1248,-2.1265,-2.1275,-2.1294,-2.1289,-2.1296,-2.131,-2.1321,-2.1338,-2.1319,-2.1344,-2.1345,-2.1341,-2.1372,-2.1375,-2.1403,-2.1363,-2.1363,-2.1364,0,-2.1141,-2.1159,-2.1193,-2.1214,-2.1222,-2.1238,-2.1258,-2.1275,-2.1292,-2.1298,-2.1312,-2.1315,-2.1337,-2.1327,-2.1358,-2.1345,-2.1356,-2.1363,-2.1364,-2.1367,-2.1356,-2.1378,-2.1412,-2.1417,-2.137,-2.1369,-2.1369,0,-2.1156,-2.1189,-2.1214,-2.1223,-2.1247,-2.1258,-2.1269,-2.1286,-2.1298,-2.1316,-2.1325,-2.1344,-2.1356,-2.1371,-2.138,-2.1372,-2.1411,-2.1402,-2.1417,-2.1417,-2.1425,-2.1425,-2.1463,-2.1431,-2.1431,-2.1431,-2.1431,0,-2.1184,-2.1205,-2.1221,-2.1236,-2.126,-2.127,-2.1293,-2.1303,-2.1319,-2.1336,-2.134,-2.1356,-2.1367,-2.1385,-2.1393,-2.1418,-2.1423,-2.1428,-2.143,-2.1428,-2.1428,-2.1436,-2.1435,-2.1432,-2.1432,-2.1431,-2.1431,0,-2.1204,-2.1216,-2.1244,-2.1265,-2.127,-2.1287,-2.1305,-2.132,-2.133,-2.1352,-2.1358,-2.1373,-2.1394,-2.1405,-2.1432,-2.1437,-2.1466,-2.1466,-2.146,-2.1461,-2.1476,-2.1475,-2.1522,-2.1529,-2.1491,-2.1492,-2.1492,0,-2.1222,-2.1238,-2.1261,-2.1274,-2.1285,-2.1304,-2.1318,-2.1328,-2.1341,-2.1363,-2.1376,-2.1398,-2.1417,-2.1452,-2.1465,-2.1486,-2.1487,-2.1502,-2.149,-2.1488,-2.1489,-2.1488,-2.149,-2.1504,-2.1505,-2.1505,-2.1505,0,-2.1252,-2.1257,-2.1276,-2.1298,-2.1314,-2.1331,-2.1348,-2.1358,-2.1371,-2.1386,-2.1409,-2.1423,-2.1451,-2.1473,-2.1496,-2.1506,-2.1508,-2.1509,-2.1514,-2.1513,-2.1509,-2.1513,-2.1467,-2.1508,-2.1507,-2.1507,-2.1507,-2.1507,-2.1272,-2.1287,-2.1306,-2.1328,-2.1342,-2.1358,-2.1374,-2.1386,-2.1405,-2.1429,-2.1434,-2.1458,-2.1477,-2.1507,-2.1519,-2.1538,-2.1535,-2.1541,-2.1543,-2.1545,-2.1547,-2.1505,-2.1542,-2.1542,-2.1542,-2.1542,-2.1542,0,-2.1303,-2.1316,-2.1335,-2.136,-2.1377,-2.1378,-2.1397,-2.1411,-2.1433,-2.145,-2.1468,-2.1495,-2.1517,-2.1533,-2.1555,-2.1568,-2.157,-2.1574,-2.1573,-2.1576,-2.1548,-2.1542,-2.1572,-2.1572,-2.1572,-2.1572,-2.1572,-2.1572,-2.1321,-2.1348,-2.1355,-2.1389,-2.1402,-2.1426,-2.1437,-2.1453,-2.1467,-2.1497,-2.1515,-2.1525,-2.1542,-2.1566,-2.1586,-2.159,-2.1599,-2.1603,-2.1608,-2.1581,-2.1578,-2.1575,-2.1569,-2.1605,-2.1605,-2.1634,-2.1635,-2.1635]}]]